Вернуться в каталог

STARLINK-38132

АктивенСвязьSSO
NORAD 100154·PAYLOAD·🇺🇸 United States

Запущен Jul 25, 2026 с Vandenberg Space Force Base

Loading…

Ближайшие Пролёты (ближайшие 24 часа)

TLE

СвежийSource: Space-Track

Эпоха: Sep 14, 2026, 22:35 UTC

1 A0154U 26171G   26257.94154931  .00007121  00000-0  19912-3 0  9991
2 A0154  97.2837 290.4540 0001023  86.1528 273.9834 15.36979615  8048

Отслеживайте STARLINK-38132 в реальном времени с AllMySat

Download on the App Store